loading
DOY 175 | 2024-06-23T11:58:53Z

SCOUT X-4 R/B, 871

Orbit data source: Space-Track

SCOUT X-4 R/B, 871 is space debris in LEO originally from a launch on Tue, 25 Aug 1964 UTC launched from the Air Force Western Test Range (AFWTR). Debris objects in space refer to the collection of defunct objects orbiting the Earth. Examples of debris include non-operational satellites, rocket bodies, and fragments generated from explosions, collisions, or faulty payload assembly.

Loading next visibility...
Loading greatness...
SCOUT X-4 R/B details
NORAD ID871
COSPAR ID
1964-051B
Orbit
LEO
Last TLE update13 hours ago
Origin
Flag of USNASA LaRC (US)
ManufacturerABL
BusAltair
MotorUnknown
Mass33 kg wet, 33 kg dry
Launch date (UTC)
1964-08-25 (60 years ago)
Launch vehicleUnknown
Launch site
Air Force Western Test Range (AFWTR)
Object type
Payload
Rocket body
Debris
Radar Cross Section1.1 m², Medium (>0.1 m² and < 1m²)
Predictive object data (real-time)
Latitude-57.66239°
Longitude89.32981°
Altitude865.842 km
Speed7.444 km/s
Apparent Right ascension11h 57m 08s
Apparent Declination-84° 07' 10"
Sunlit
Object is in full shadow
Predictive observer data (real-time)
Local Sidereal Time23:07:00
Azimuth181.823° SSW
Elevation-45.643°
Doppler factor1
Orbital elements
Apogee952.967 km
Perigee828.79 km
Semi-major axis7,269.016 km
Eccentricity0.0085415
Inclination79.893°
RAAN147.7359°
Arg. of periapsis277.0268°
True anomaly83.08941°
Mean anomaly82.1185°
Mean motion3.50211 °/min
BSTAR0.00022538
Period102.8 mins
Definitive object data (Epoch: 2024-06-22T22:49:50.104Z)
Latitude0.00004°
Longitude-106.33011°
Altitude888.465 km
Speed7.412 km/s
True Right ascension09h 50m 56s
True Declination0° 00' 00"
Sunlit
Object was in daylight at TLE epoch
TLE from 13 hours ago
0 SCOUT X-4 R/B
1 00871U 64051B   24174.95127436  .00000349  00000-0  22538-3 0  9996
2 00871  79.8930 147.7359 0085415 277.0268  82.1185 14.00049909 43496
Epoch: 2024-06-22T22:49Z
No data available

SCOUT X-4 R/B Visibility forecast

Observer location: 39.9160978°, -105.1181434, 0m alt.

SCOUT X-4 R/B is not visible in the next 10 days
Span
Click to sort rows by Start time (UTC) header in descending order
Start Az.
Max El. time (UTC)
Max El. Az.
Max El.
End time (UTC)
End Az.